Guymon, OK

12:45 PM CST on November 23, 2017 (GMT -0600)
Guymon Municipal

Weather History for KGUY - July, 2013

Change the Weather History Date:

Friday, July 12, 2013

  Actual Average Record
Temperature  
Mean Temperature 86 °F 80 °F  
Max Temperature 101 °F 94 °F 102 °F (2001)
Min Temperature 70 °F 65 °F 60 °F (1999)
Degree Days  
Heating Degree Days 0 0  
Month to date heating degree days 0 0  
Since 1 June heating degree days 0 8  
Since 1 July heating degree days 0 0  
Cooling Degree Days 21 15  
Month to date cooling degree days 194 170  
Year to date cooling degree days 834 558  
Since 1 June cooling degree days 630 450  
Growing Degree Days 35 (Base 50)    
Moisture  
Dew Point 59 °F    
Average Humidity 50    
Maximum Humidity 78    
Minimum Humidity 21    
Precipitation  
Precipitation 0.00 in 0.10 in 1.14 in (2007)
Month to date precipitation 0.40 1.00  
Year to date precipitation 5.68 10.19  
Snow  
Snow 0.00 in - - ()
Month to date snowfall 0.0  
Since 1 June snowfall T  
Since 1 July snowfall 0.0  
Snow Depth 0.00 in    
Sea Level Pressure  
Sea Level Pressure 29.79 in    
Wind  
Wind Speed 14 mph (South)    
Max Wind Speed 25 mph    
Max Gust Speed 33 mph    
Visibility 10 miles    
Events      
T = Trace of Precipitation, MM = Missing Value Source: NWS Daily Summary

Daily Weather History Graph

Daily Weather History Graph

Search for Another Location

Airport or City:

Trip Planner

Search our weather history database for the weather conditions in past years. The results will help you decide how hot, cold, wet, or windy it might be!

Date:

Astronomy

Jul. 12, 2013 Rise Set
Actual Time 6:37 AM CDT 9:05 PM CDT
Civil Twilight 6:07 AM CDT 9:35 PM CDT
Nautical Twilight 5:30 AM CDT 10:12 PM CDT
Astronomical Twilight 4:49 AM CDT 10:53 PM CDT
Moon 10:48 AM CDT (7/12) 11:26 PM CDT (7/12)
Length of Visible Light 15h 28m
Length of Day
14h 28m
Waxing Crescent, 17% of the Moon is Illuminated
Jul 12
Waxing Crescent
Jul 15
First Quarter
Jul 22
Full
Jul 29
Last Quarter
Aug 6
New

Hourly Weather History & Observations

Time (CDT) Temp. Heat Index Dew Point Humidity Pressure Visibility Wind Dir Wind Speed Gust Speed Precip Events Conditions
12:53 AM 75.9 °F - 62.1 °F 62% 29.84 in 10.0 mi South 10.4 mph - N/A   Partly Cloudy
1:53 AM 73.9 °F - 62.1 °F 66% 29.84 in 10.0 mi South 9.2 mph - N/A   Clear
2:53 AM 73.9 °F - 63.0 °F 68% 29.83 in 10.0 mi South 6.9 mph - N/A   Clear
3:53 AM 72.0 °F - 63.0 °F 73% 29.82 in 10.0 mi South 8.1 mph - N/A   Clear
4:53 AM 71.1 °F - 63.0 °F 75% 29.82 in 10.0 mi South 8.1 mph - N/A   Clear
5:53 AM 71.1 °F - 63.0 °F 75% 29.82 in 10.0 mi SSE 10.4 mph - N/A   Clear
6:53 AM 70.0 °F - 63.0 °F 78% 29.82 in 10.0 mi South 9.2 mph - N/A   Clear
7:53 AM 73.9 °F - 63.0 °F 68% 29.82 in 10.0 mi South 12.7 mph - N/A   Clear
8:53 AM 81.0 °F 81.9 °F 62.1 °F 52% 29.82 in 10.0 mi SSW 18.4 mph - N/A   Clear
9:53 AM 86.0 °F 86.1 °F 61.0 °F 43% 29.83 in 10.0 mi South 20.7 mph 26.5 mph N/A   Clear
10:53 AM 91.0 °F 90.2 °F 59.0 °F 34% 29.81 in 10.0 mi SSW 23.0 mph 33.4 mph N/A   Clear
11:53 AM 93.9 °F 93.2 °F 59.0 °F 31% 29.81 in 10.0 mi SSW 19.6 mph 25.3 mph N/A   Clear
12:53 PM 97.0 °F 96.1 °F 57.9 °F 27% 29.80 in 10.0 mi South 19.6 mph 29.9 mph N/A   Clear
1:53 PM 99.0 °F 98.1 °F 57.0 °F 25% 29.78 in 10.0 mi South 15.0 mph 28.8 mph N/A   Clear
2:53 PM 98.1 °F 96.4 °F 55.9 °F 24% 29.77 in 10.0 mi South 20.7 mph 28.8 mph N/A   Scattered Clouds
3:53 PM 99.0 °F 97.7 °F 55.9 °F 24% 29.76 in 10.0 mi SSE 13.8 mph 24.2 mph N/A   Clear
4:53 PM 100.0 °F 97.9 °F 54.0 °F 21% 29.75 in 10.0 mi South 13.8 mph 25.3 mph N/A   Clear
5:53 PM 99.0 °F 97.3 °F 55.0 °F 23% 29.74 in 10.0 mi South 19.6 mph 27.6 mph N/A   Clear
6:53 PM 98.1 °F 96.1 °F 54.0 °F 23% 29.73 in 10.0 mi South 15.0 mph - N/A   Clear
7:53 PM 96.1 °F 93.5 °F 53.1 °F 23% 29.74 in 10.0 mi South 15.0 mph - N/A   Clear
8:53 PM 91.0 °F 89.7 °F 57.0 °F 32% 29.75 in 10.0 mi South 11.5 mph - N/A   Clear
9:53 PM 88.0 °F 86.5 °F 55.9 °F 34% 29.77 in 10.0 mi South 12.7 mph - N/A   Clear
10:53 PM 86.0 °F 84.9 °F 57.0 °F 37% 29.79 in 10.0 mi South 12.7 mph 19.6 mph N/A   Clear
11:53 PM 84.0 °F 83.3 °F 57.0 °F 40% 29.80 in 10.0 mi South 10.4 mph - N/A   Clear